Terug naar catalogus

TESLA ROADSTER/FALCON 9H

ActiefWetenschapHEO
NORAD 43205·PAYLOAD·🇺🇸 United States

Gelanceerd Feb 6, 2018 vanaf Cape Canaveral Space Force Station

Loading…

Volgende Passages (komende 24 uur)

TLE

VerouderdSource: Space-Track

Epoch: Feb 7, 2018, 05:19 UTC

1 43205U 18017A   18038.22157858  .00505133 -52681-6  23951-2 0  9997
2 43205  29.0196 286.7252 3400758 181.1849 342.1043  8.76376464    24

Volg TESLA ROADSTER/FALCON 9H in realtime met AllMySat

Download on the App Store